Tillbaka till svenska Fidonet
English   Information   Debug  
FILM   0/18
FNEWS_PUBLISH   4751
FN_SYSOP   42036
FN_SYSOP_OLD1   71952
FTP_FIDO   0/2
FTSC_PUBLIC   0/13899
FUNNY   0/4886
GENEALOGY.EUR   0/71
GET_INFO   105
GOLDED   0/408
HAM   4888/16391
HOLYSMOKE   0/6791
HOT_SITES   0/1
HTMLEDIT   0/71
HUB203   466
HUB_100   264
HUB_400   39
HUMOR   0/29
IC   0/2851
INTERNET   0/424
INTERUSER   0/3
IP_CONNECT   719
JAMNNTPD   0/233
JAMTLAND   0/47
KATTY_KORNER   0/41
LAN   0/16
LINUX-USER   0/19
LINUXHELP   0/1155
LINUX   0/22267
LINUX_BBS   0/957
mail   18.68
mail_fore_ok   249
MENSA   0/341
MODERATOR   0/102
MONTE   0/992
MOSCOW_OKLAHOMA   0/1245
MUFFIN   0/783
MUSIC   0/321
N203_STAT   938
N203_SYSCHAT   313
NET203   321
NET204   69
NET_DEV   0/10
NORD.ADMIN   0/101
NORD.CHAT   0/2572
NORD.FIDONET   189
NORD.HARDWARE   0/28
NORD.KULTUR   0/114
NORD.PROG   0/32
NORD.SOFTWARE   0/88
NORD.TEKNIK   0/58
NORD   0/453
OCCULT_CHAT   0/93
OS2BBS   0/787
OS2DOSBBS   0/580
OS2HW   0/42
OS2INET   0/37
OS2LAN   0/134
OS2PROG   0/36
OS2REXX   0/113
OS2USER-L   207
OS2   0/4806
OSDEBATE   14956/18996
PASCAL   0/490
PERL   0/457
PHP   0/45
POINTS   0/405
POLITICS   0/29554
POL_INC   0/14731
PSION   103
R20_ADMIN   1132
R20_AMATORRADIO   0/2
R20_BEST_OF_FIDONET   14
R20_CHAT   0/893
R20_DEPP   0/3
R20_DEV   399
R20_ECHO2   1669
R20_ECHOPRES   0/35
R20_ESTAT   0/719
R20_FIDONETPROG...
...RAM.MYPOINT
  0/2
R20_FIDONETPROGRAM   0/22
R20_FIDONET   0/248
R20_FILEFIND   0/24
R20_FILEFOUND   0/22
R20_HIFI   0/3
R20_INFO2   3559
R20_INTERNET   0/12940
R20_INTRESSE   0/60
R20_INTR_KOM   0/99
R20_KANDIDAT.CHAT   42
R20_KANDIDAT   28
R20_KOM_DEV   112
R20_KONTROLL   6661/13360
R20_KORSET   0/18
R20_LOKALTRAFIK   0/24
R20_MODERATOR   0/1852
R20_NC   76
R20_NET200   245
R20_NETWORK.OTH...
...ERNETS
  0/13
R20_OPERATIVSYS...
...TEM.LINUX
  0/44
R20_PROGRAMVAROR   0/1
R20_REC2NEC   534
R20_SFOSM   0/341
R20_SF   0/108
R20_SPRAK.ENGLISH   0/1
R20_SQUISH   107
R20_TEST   2
R20_WORST_OF_FIDONET   20
RAR   0/9
RA_MULTI   106
RA_UTIL   0/162
REGCON.EUR   1643/2066
REGCON   0/13
SCIENCE   0/1206
SF   0/239
SHAREWARE_SUPPORT   0/5146
SHAREWRE   0/14
SIMPSONS   0/169
STATS_OLD1   0/2539.065
STATS_OLD2   0/2530
STATS_OLD3   0/2395.095
STATS_OLD4   0/1692.25
SURVIVOR   0/495
SYSOPS_CORNER   0/3
SYSOP   0/84
TAGLINES   0/112
TEAMOS2   0/4530
TECH   0/2617
TEST.444   0/105
TRAPDOOR   0/19
TREK   0/755
TUB   0/290
UFO   0/40
UNIX   0/1316
USA_EURLINK   0/102
USR_MODEMS   0/1
VATICAN   0/2740
VIETNAM_VETS   0/14
VIRUS   0/378
VIRUS_INFO   0/201
VISUAL_BASIC   0/473
WHITEHOUSE   0/5187
WIN2000   0/101
WIN32   0/30
WIN95   2710/4291
WIN95_OLD1   54884/70272
WINDOWS   0/1517
WWB_SYSOP   0/419
WWB_TECH   0/810
ZCC-PUBLIC   0/1
ZEC   4

 
4DOS   0/134
ABORTION   0/7
ALASKA_CHAT   0/506
ALLFIX_FILE   0/1313
ALLFIX_FILE_OLD1   0/7997
ALT_DOS   0/152
AMATEUR_RADIO   0/1039
AMIGASALE   0/14
AMIGA   0/331
AMIGA_INT   0/1
AMIGA_PROG   0/20
AMIGA_SYSOP   0/26
ANIME   0/15
ARGUS   0/924
ASCII_ART   0/340
ASIAN_LINK   0/651
ASTRONOMY   0/417
AUDIO   0/92
AUTOMOBILE_RACING   0/105
BABYLON5   0/17862
BAG   135
BATPOWER   0/361
BBBS.ENGLISH   0/382
BBSLAW   0/109
BBS_ADS   0/5290
BBS_INTERNET   0/507
BIBLE   0/3563
BINKD   0/1119
BINKLEY   0/215
BLUEWAVE   0/2173
CABLE_MODEMS   0/25
CBM   0/46
CDRECORD   0/66
CDROM   0/20
CLASSIC_COMPUTER   0/378
COMICS   0/15
CONSPRCY   309/899
COOKING   39899
COOKING_OLD1   0/24719
COOKING_OLD2   0/40862
COOKING_OLD3   0/37489
COOKING_OLD4   0/35496
COOKING_OLD5   9370
C_ECHO   0/189
C_PLUSPLUS   0/31
DIRTY_DOZEN   0/201
DOORGAMES   0/2155
DOS_INTERNET   0/196
duplikat   6102
ECHOLIST   0/18295
EC_SUPPORT   0/318
ELECTRONICS   0/359
ELEKTRONIK.GER   1534
ENET.LINGUISTIC   0/13
ENET.POLITICS   0/4
ENET.SOFT   0/11701
ENET.SYSOP   34210
ENET.TALKS   0/32
ENGLISH_TUTOR   0/2000
EVOLUTION   0/1335
FDECHO   0/217
FDN_ANNOUNCE   0/7068
FIDONEWS   24749
FIDONEWS_OLD1   0/49742
FIDONEWS_OLD2   0/35949
FIDONEWS_OLD3   0/30874
FIDONEWS_OLD4   0/37224
FIDO_SYSOP   12913
FIDO_UTIL   0/180
FILEFIND   0/209
FILEGATE   0/212
Möte HAM, 16391 texter
 lista första sista föregående nästa
Text 5037, 921 rader
Skriven 2012-01-27 07:30:51 av Amsat List (1:323/120.0)
Ärende: [keps] orb12027.amsa
============================
[keps] orb12027.amsa

Sender: keps-bounces@amsat.org
Return-Path: <keps-bounces@amsat.org>
X-Rcpt: craig.healy@chowda.com
X-UIDL: 1327667284.1059

SB KEPS @ AMSAT  $ORB12027.O
Orbital Elements  12027.OSCAR

HR AMSAT ORBITAL ELEMENTS FOR OSCAR SATELLITES
FROM WA5QGD FORT WORTH,TX January 27, 2012
Send SUBSCRIBE KEPS/UNSUBSCRIBE KEPS to majordomo@amsat.org only
BID: ORB12027.O
TO ALL RADIO AMATEURS BT

Satellite: AO-07
Catalog number: 07530
Epoch time:      12026.85193452
Element set:     290
Inclination:      101.3979 deg
RA of node:       029.5887 deg
Eccentricity:    0.0011814
Arg of perigee:   201.2218 deg
Mean anomaly:     158.8365 deg
Mean motion:   12.53587271 rev/day
Decay rate:       -2.7e-07 rev/day^2
Epoch rev:           70221
Checksum:              291

Satellite: FO-29
Catalog number: 24278
Epoch time:      12025.94422611
Element set:    0773
Inclination:      098.5747 deg
RA of node:       145.4169 deg
Eccentricity:    0.0351134
Arg of perigee:   040.2654 deg
Mean anomaly:     322.3934 deg
Mean motion:   13.52975710 rev/day
Decay rate:       -2.1e-07 rev/day^2
Epoch rev:           76258
Checksum:              307

Satellite: SO-33
Catalog number: 25509
Epoch time:      12025.46766172
Element set:    0154
Inclination:      031.4344 deg
RA of node:       066.9330 deg
Eccentricity:    0.0352734
Arg of perigee:   025.7950 deg
Mean anomaly:     335.9818 deg
Mean motion:   14.28659458 rev/day
Decay rate:       5.98e-06 rev/day^2
Epoch rev:           69208
Checksum:              330

Satellite: RS-22
Catalog number: 27939
Epoch time:      12026.62623717
Element set:      26
Inclination:      097.8222 deg
RA of node:       234.6607 deg
Eccentricity:    0.0013566
Arg of perigee:   002.1335 deg
Mean anomaly:     357.9913 deg
Mean motion:   14.63881606 rev/day
Decay rate:       7.17e-06 rev/day^2
Epoch rev:           44502
Checksum:              300

Satellite: VO-52
Catalog number: 28650
Epoch time:      12026.66917644
Element set:       9
Inclination:      097.6152 deg
RA of node:       064.5045 deg
Eccentricity:    0.0027196
Arg of perigee:   147.0113 deg
Mean anomaly:     213.2818 deg
Mean motion:   14.82641959 rev/day
Decay rate:      1.736e-05 rev/day^2
Epoch rev:           36385
Checksum:              312

Satellite: SO-67
Catalog number: 35870
Epoch time:      12026.75874977
Element set:     624
Inclination:      097.2526 deg
RA of node:       067.4931 deg
Eccentricity:    0.0001700
Arg of perigee:   003.3150 deg
Mean anomaly:     088.8814 deg
Mean motion:   15.22648441 rev/day
Decay rate:      4.956e-05 rev/day^2
Epoch rev:           13093
Checksum:              317

Satellite: HO-68
Catalog number: 36122
Epoch time:      12026.70145432
Element set:     142
Inclination:      100.3840 deg
RA of node:       088.8127 deg
Eccentricity:    0.0007772
Arg of perigee:   076.1256 deg
Mean anomaly:     284.0716 deg
Mean motion:   13.16292564 rev/day
Decay rate:       -4.4e-07 rev/day^2
Epoch rev:           10164
Checksum:              271

/EX
SB KEPS @ AMSAT  $ORB12027.D
Orbital Elements  12027.MICROS

HR AMSAT ORBITAL ELEMENTS FOR THE MICROSATS
FROM WA5QGD FORT WORTH,TX January 27, 2012
Send SUBSCRIBE KEPS/UNSUBSCRIBE KEPS to majordomo@amsat.org only
BID: ORB12027.D
TO ALL RADIO AMATEURS BT

Satellite: UO-11
Catalog number: 14781
Epoch time:      12025.69139680
Element set:    0776
Inclination:      097.9759 deg
RA of node:       086.3442 deg
Eccentricity:    0.0009654
Arg of perigee:   133.4985 deg
Mean anomaly:     226.7021 deg
Mean motion:   14.80290440 rev/day
Decay rate:       8.36e-06 rev/day^2
Epoch rev:           49870
Checksum:              332

Satellite: AO-16
Catalog number: 20439
Epoch time:      12025.85216355
Element set:    0391
Inclination:      098.4132 deg
RA of node:       333.3651 deg
Eccentricity:    0.0010104
Arg of perigee:   221.7850 deg
Mean anomaly:     138.2557 deg
Mean motion:   14.32011188 rev/day
Decay rate:       1.56e-06 rev/day^2
Epoch rev:           14948
Checksum:              273

Satellite: LO-19
Catalog number: 20442
Epoch time:      12025.89705607
Element set:     305
Inclination:      098.3789 deg
RA of node:       336.9271 deg
Eccentricity:    0.0011358
Arg of perigee:   212.3803 deg
Mean anomaly:     147.6679 deg
Mean motion:   14.32232658 rev/day
Decay rate:       2.85e-06 rev/day^2
Epoch rev:           14967
Checksum:              322

Satellite: AO-27
Catalog number: 22825
Epoch time:      12025.89164971
Element set:      16
Inclination:      098.5593 deg
RA of node:       331.0562 deg
Eccentricity:    0.0008212
Arg of perigee:   346.5886 deg
Mean anomaly:     013.5074 deg
Mean motion:   14.29424716 rev/day
Decay rate:       2.25e-06 rev/day^2
Epoch rev:           95600
Checksum:              301

Satellite: IO-26
Catalog number: 22826
Epoch time:      12025.84979102
Element set:    0773
Inclination:      098.5534 deg
RA of node:       331.4240 deg
Eccentricity:    0.0008883
Arg of perigee:   340.8320 deg
Mean anomaly:     019.2523 deg
Mean motion:   14.29694345 rev/day
Decay rate:       1.29e-06 rev/day^2
Epoch rev:           95612
Checksum:              307

Satellite: GO-32
Catalog number: 25397
Epoch time:      12026.75678017
Element set:     688
Inclination:      098.3477 deg
RA of node:       012.5940 deg
Eccentricity:    0.0001326
Arg of perigee:   022.5674 deg
Mean anomaly:     337.5538 deg
Mean motion:   14.23254833 rev/day
Decay rate:        9.7e-07 rev/day^2
Epoch rev:           70376
Checksum:              321

